Location: Lisboa
(38.7223°N, 9.1393°W)
Time: 03:53:41
(UTC+00:00)

Envisat - Visible Passes

Search period start: 04 March 2024 00:00
Search period end: 14 March 2024 00:00
Orbit: 762 x 764 km, 98.3° (Epoch: 03 March)

Date Brightness Start Highest point End Pass type
(mag) Time Alt. Az. Time Alt. Az. Time Alt. Az.
04 Mar 5.6 03:32:57 10° NNE 03:33:49 15° NNE 03:33:49 15° NNE visible
04 Mar 4.9 05:12:43 10° NNW 05:14:00 15° NNW 05:14:00 15° NNW visible
05 Mar 4.8 04:34:36 10° N 04:36:24 21° N 04:36:24 21° N visible
06 Mar 5.0 03:57:09 10° NNE 03:58:48 21° NNE 03:58:48 21° NNE visible
06 Mar 5.1 05:38:27 10° NW 05:38:59 11° NW 05:38:59 11° NW visible
07 Mar 5.7 03:20:17 10° NNE 03:21:13 15° NE 03:21:13 15° NE visible
07 Mar 4.7 04:59:26 10° N 05:01:23 20° NNW 05:01:23 20° NNW visible
08 Mar 4.6 04:21:35 10° N 04:23:47 26° N 04:23:47 26° N visible
09 Mar 5.0 03:44:19 10° NNE 03:46:12 23° NNE 03:46:12 23° NNE visible
09 Mar 4.8 05:24:42 10° NNW 05:26:22 15° NW 05:26:22 15° NW visible
10 Mar 5.8 03:07:42 10° NE 03:08:36 14° NE 03:08:36 14° NE visible
10 Mar 4.4 04:46:16 10° N 04:48:46 25° NNW 04:48:46 25° NNW visible
11 Mar 4.4 04:08:37 10° N 04:11:11 30° N 04:11:11 30° N visible
12 Mar 5.1 03:31:32 10° NNE 03:33:35 23° NE 03:33:35 23° NE visible
12 Mar 4.5 05:11:15 10° NNW 05:13:45 19° NW 05:13:45 19° NW visible
13 Mar 5.9 02:55:18 10° NE 02:55:59 12° NE 02:55:59 12° NE visible
13 Mar 4.1 04:33:09 10° N 04:36:09 32° NNW 04:36:09 32° NNW visible
